Location: Bühlhof
(48.7849°N, 8.6361°E)
Time: 00:12:46
(UTC+00:00)

Resurs 1-3 - Pass Details

Date: 19 January 2026
Orbit: 612 x 615 km, 97.7° (Epoch: 18 February)

Event Time Altitude Azimuth Distance (km) Brightness Sun altitude
Rises 16:57:50 0° 140° (SE) 2,877 6.8 -9.0°
Reaches altitude 10° 17:00:09 10° 131° (SE) 1,976 5.9 -9.4°
Maximum altitude 17:04:01 33° 67° (ENE) 1,037 4.2 -10.0°
Drops below altitude 10° 17:07:54 10° 4° (N) 1,988 5.9 -10.6°
Sets 17:10:14 0° 355° (N) 2,898 6.9 -11.0°
